{"data":{"norad_id":64560,"epoch":"2026-09-21T20:36:25.428960Z","epoch_age_seconds":64409,"freshness":"FRESH","line1":"1 64560U 25135AJ  26264.85862765  .00003128  00000+0  28183-3 0  9992","line2":"2 64560  97.7804  18.8631 0000806  84.2075 275.9239 14.96307101 68367","mean_motion":14.96307101,"eccentricity":8.06e-5,"inclination_deg":97.7804,"raan_deg":18.8631,"arg_perigee_deg":84.2075,"mean_anomaly_deg":275.9239,"bstar":0.00028183,"rev_number":6836,"period_min":96.236928838848,"perigee_km":577.7578955074,"apogee_km":578.87927614783,"semimajor_km":6956.4555858276,"source":"CELESTRAK","updated_at":"2026-09-22T09:00:29.847486Z"}}